[[{"header":{"parameterUnit":"m.s-1","parameterCategory":1,"la1":30.2991,"la2":30.254,"lo1":-89.0895,"lo2":-89.0444,"dy":0.0017,"dx":0.0017,"nx":28,"ny":28,"refTime":"2025-02-08T03:00:00:Z","depth":0,"parameterNumber":2,"parameterNumberName":"U-component_of_WINDS"},"data":[0,0,0,0,0,0,0,0,0,0,0,0,0,0,0,0,0,0,0,0,0,0,0,0,0,0,0,0,0,0,0,0,0,0,0,0,0,0,0,0,0,0,0,0,0,0,0,0,0,0,0,0,0,0,0,0,0,0,-0.5275,-0.5274,0,-0.5195,-0.5195,-0.5194,-0.5111,-0.511,-0.5109,-0.5108,-0.5023,-0.5022,-0.5021,0,0,0,0,0,0,0,0,0,0,0,0,0,-0.5354,-0.5353,-0.5275,-0.5274,-0.5273,-0.5196,-0.5195,-0.5193,-0.5111,-0.511,-0.5108,-0.5107,-0.5024,-0.5022,-0.5021,0,0,0,0,0,0,0,0,0,0,0,0,0,-0.5302,-0.5353,-0.5276,-0.5223,-0.5218,-0.5196,-0.5194,-0.5193,-0.5112,-0.511,-0.5108,-0.5107,-0.5024,-0.5022,-0.5021,-0.5044,0,0,-0.5015,-0.5014,0,0,0,0,0,0,0,0,-0.5305,-0.5299,-0.5232,-0.5227,-0.522,-0.5162,-0.5191,-0.5143,-0.5112,-0.5152,-0.5108,-0.5106,-0.5071,-0.5065,-0.5053,-0.504,-0.5036,-0.5015,-0.5014,-0.5013,-0.5013,0,0,0,0,0,0,0,-0.5309,-0.5302,-0.5244,-0.5231,-0.5224,-0.5203,-0.5193,-0.5182,-0.5121,-0.5148,-0.5142,-0.5134,-0.5067,-0.5055,-0.5051,-0.5035,-0.5015,-0.5014,-0.5012,-0.5012,-0.5035,-0.5037,0,0,0,0,0,0,-0.5321,-0.5306,-0.5246,-0.5241,-0.526,-0.5203,-0.5192,-0.5182,-0.5121,-0.5111,-0.5135,-0.513,-0.5059,-0.5053,-0.5048,-0.507,-0.5013,-0.5012,-0.5011,-0.5034,-0.5036,-0.5037,0,0,0,0,0,0,-0.5323,-0.5316,-0.5249,-0.5272,-0.5262,-0.5203,-0.5192,-0.5181,-0.517,-0.5112,-0.51,-0.5135,-0.5058,-0.505,-0.5045,-0.5066,-0.5011,-0.5009,-0.5032,-0.5034,-0.5037,-0.5116,0,0,0,0,0,0,-0.5325,-0.5317,-0.5326,-0.5273,-0.5261,-0.5249,-0.5194,-0.5181,-0.5167,-0.516,-0.5108,-0.5098,-0.5056,-0.5048,-0.5044,-0.5063,-0.5008,-0.5029,-0.5033,-0.5036,-0.5111,-0.5121,-0.5129,0,0,0,0,0,-0.5328,-0.5351,-0.5327,-0.532,-0.527,-0.5251,-0.5244,-0.5196,-0.5169,-0.5177,-0.514,-0.5099,-0.5065,-0.5049,-0.5042,-0.5061,-0.5028,-0.5032,-0.5036,-0.5107,-0.5119,-0.5129,0,0,0,0,0,0,-0.5408,-0.5343,-0.5316,-0.5322,-0.5293,-0.5237,-0.5245,-0.521,-0.5187,-0.5181,-0.5121,-0.511,-0.5113,-0.5086,-0.5069,-0.508,-0.5041,-0.5043,-0.5097,-0.5108,-0.5117,-0.5123,-0.5006,0,0,0,0,0,-0.5426,-0.5416,-0.536,-0.5371,-0.5358,-0.5304,-0.5294,-0.526,-0.5226,-0.5213,-0.5176,-0.5145,-0.5126,-0.5116,-0.5096,-0.5107,-0.5095,-0.5117,-0.5126,-0.5134,-0.5137,-0.5141,-0.515,-0.505,-0.505,-0.505,0,0,-0.5463,-0.5427,-0.5424,-0.5386,-0.5359,-0.535,-0.5294,-0.5287,-0.5279,-0.5212,-0.5205,-0.5177,-0.5138,-0.5141,-0.5141,-0.512,-0.5162,-0.5139,-0.5145,-0.5144,-0.5146,-0.5155,-0.5164,-0.5053,-0.5052,-0.5052,0,0,-0.5527,-0.5498,-0.5504,-0.5479,-0.5439,-0.5404,-0.5406,-0.5355,-0.5334,-0.5327,-0.5277,-0.5266,-0.5236,-0.5211,-0.5194,-0.5248,-0.521,-0.5243,-0.529,-0.5295,-0.5303,-0.5309,-0.5329,-0.5336,-0.5246,-0.5247,-0.5247,0,-0.5578,-0.5562,-0.5512,-0.5507,-0.5492,-0.5432,-0.5437,-0.5414,-0.537,-0.5361,-0.5338,-0.5299,-0.5269,-0.5265,-0.5279,-0.5267,-0.5267,-0.5249,-0.5306,-0.5312,-0.5318,-0.5335,-0.5343,-0.5251,-0.525,-0.525,-0.525,0,-0.5627,-0.5617,-0.5627,-0.5587,-0.5572,-0.5573,-0.5521,-0.5513,-0.548,-0.5447,-0.544,-0.5401,-0.5373,-0.5369,-0.5336,-0.5361,-0.5349,-0.5317,-0.5276,-0.5332,-0.5348,-0.5354,-0.5257,-0.5256,-0.5254,-0.5253,0,0,-0.5738,-0.567,-0.5675,-0.5656,-0.5608,-0.5599,-0.5597,-0.557,-0.5563,-0.5535,-0.5531,-0.5508,-0.5478,-0.5459,-0.5422,-0.5427,-0.5472,-0.5393,-0.5391,-0.5409,-0.5497,-0.5522,-0.5531,-0.5447,-0.5448,-0.5449,-0.55,0,-0.5793,-0.5786,-0.574,-0.5746,-0.5736,-0.5679,-0.5677,-0.5647,-0.5616,-0.5603,-0.5568,-0.5552,-0.5514,-0.5502,-0.5503,-0.5466,-0.5489,-0.5462,-0.5442,-0.5442,-0.5454,-0.5539,-0.5565,-0.5615,-0.5506,-0.5507,-0.5508,0,-0.5856,-0.5833,-0.5838,-0.5791,-0.5785,-0.5784,-0.5756,-0.5744,-0.5708,-0.5685,-0.5665,-0.5625,-0.5618,-0.558,-0.557,-0.5553,-0.5542,-0.5523,-0.5523,-0.552,-0.5478,-0.5537,-0.563,-0.5638,-0.5517,-0.5516,-0.5516,0,-0.5937,-0.5907,-0.5906,-0.5891,-0.5836,-0.5837,-0.5813,-0.5777,-0.5764,-0.5738,-0.5729,-0.5704,-0.569,-0.567,-0.5624,-0.5601,-0.5619,-0.5577,-0.56,-0.5601,-0.5606,-0.5606,-0.5699,-0.5599,-0.5599,-0.5599,-0.5599,0,-0.6003,-0.6009,-0.5941,-0.5941,-0.5945,-0.5892,-0.5898,-0.5869,-0.5837,-0.5829,-0.5778,-0.5772,-0.5711,-0.5698,-0.5661,-0.5659,-0.5653,-0.5634,-0.5624,-0.5638,-0.5641,-0.563,-0.5626,-0.5601,-0.5601,-0.56,-0.56,0,-0.6094,-0.6049,-0.6044,-0.5992,-0.5979,-0.5985,-0.594,-0.5937,-0.5903,-0.5895,-0.5889,-0.5836,-0.5818,-0.577,-0.5739,-0.5714,-0.5722,-0.5703,-0.5734,-0.5728,-0.5753,-0.5752,-0.5842,-0.5851,-0.5746,-0.5747,-0.5748,0,-0.6139,-0.6142,-0.6091,-0.6083,-0.6062,-0.6049,-0.6035,-0.5983,-0.5971,-0.5932,-0.5934,-0.5912,-0.5891,-0.5865,-0.5823,-0.5799,-0.578,-0.5813,-0.5776,-0.579,-0.578,-0.5781,-0.5781,-0.5821,-0.5823,-0.5824,-0.5825,0,-0.6224,-0.6202,-0.6185,-0.616,-0.6146,-0.6124,-0.6098,-0.6094,-0.6036,-0.6025,-0.6006,-0.5991,-0.596,-0.5938,-0.5908,-0.5883,-0.5844,-0.5837,-0.5841,-0.5856,-0.5873,-0.5864,-0.5756,-0.5835,-0.5834,-0.5833,-0.5833,-0.5832,-0.6293,-0.6293,-0.6258,-0.624,-0.6216,-0.6194,-0.6189,-0.6155,-0.6138,-0.611,-0.608,-0.6065,-0.6029,-0.5984,-0.5962,-0.5949,-0.5929,-0.5934,-0.5936,-0.5938,-0.5945,-0.5876,-0.5943,-0.5943,-0.5943,-0.5942,-0.5942,0,-0.6376,-0.635,-0.6335,-0.6302,-0.6288,-0.6254,-0.6224,-0.6215,-0.6202,-0.6173,-0.6154,-0.6133,-0.6112,-0.6069,-0.6044,-0.6042,-0.6023,-0.6037,-0.6037,-0.6032,-0.5964,-0.5964,-0.6052,-0.6052,-0.6052,-0.6052,-0.6052,-0.6052,-0.6418,-0.6416,-0.639,-0.6375,-0.6349,-0.6334,-0.6321,-0.63,-0.6276,-0.6255,-0.6238,-0.621,-0.6175,-0.6147,-0.6126,-0.6114,-0.6107,-0.6126,-0.6109,-0.6047,-0.6036,-0.6026,-0.6025,-0.6125,-0.6126,-0.6177,-0.6177,-0.6178]},{"header":{"parameterUnit":"m.s-1","parameterCategory":1,"la1":30.2991,"la2":30.254,"lo1":-89.0895,"lo2":-89.0444,"dy":0.0017,"dx":0.0017,"nx":28,"ny":28,"refTime":"2025-02-08T03:00:00:Z","depth":0,"parameterNumber":3,"parameterNumberName":"V-component_of_WINDS"},"data":[0,0,0,0,0,0,0,0,0,0,0,0,0,0,0,0,0,0,0,0,0,0,0,0,0,0,0,0,0,0,0,0,0,0,0,0,0,0,0,0,0,0,0,0,0,0,0,0,0,0,0,0,0,0,0,0,0,0,2.8063,2.8063,0,2.8052,2.8052,2.8052,2.8071,2.8072,2.8072,2.8073,2.8059,2.8058,2.8057,0,0,0,0,0,0,0,0,0,0,0,0,0,2.8098,2.8097,2.8063,2.8063,2.8063,2.8052,2.8052,2.8052,2.8071,2.8072,2.8073,2.8073,2.806,2.8058,2.8057,0,0,0,0,0,0,0,0,0,0,0,0,0,2.8085,2.8097,2.8063,2.8071,2.8072,2.8052,2.8052,2.8052,2.8071,2.8072,2.8073,2.8074,2.806,2.8059,2.8057,2.8028,0,0,2.8053,2.8052,0,0,0,0,0,0,0,0,2.8085,2.8083,2.807,2.8071,2.8071,2.8064,2.8059,2.8044,2.8071,2.8071,2.8073,2.8074,2.806,2.8059,2.8054,2.8028,2.8027,2.8053,2.8052,2.8051,2.8051,0,0,0,0,0,0,0,2.8086,2.8084,2.8059,2.807,2.807,2.8074,2.8074,2.8056,2.806,2.8071,2.8072,2.8071,2.806,2.8056,2.8054,2.8027,2.8053,2.8051,2.805,2.805,2.7976,2.7975,0,0,0,0,0,0,2.8087,2.8084,2.8059,2.8058,2.8081,2.8073,2.8072,2.8065,2.806,2.8061,2.807,2.8072,2.8058,2.8056,2.8054,2.802,2.8051,2.805,2.8049,2.7977,2.7976,2.7975,0,0,0,0,0,0,2.8087,2.8084,2.8059,2.8072,2.8069,2.8071,2.8064,2.8064,2.806,2.806,2.806,2.8065,2.8058,2.8056,2.8035,2.8019,2.8049,2.8048,2.7978,2.7977,2.7975,2.7951,0,0,0,0,0,0,2.8088,2.8084,2.8074,2.8071,2.8068,2.8041,2.8063,2.8064,2.8057,2.806,2.8055,2.8055,2.8059,2.8037,2.8033,2.8018,2.8047,2.798,2.7978,2.7976,2.7953,2.7949,2.7945,0,0,0,0,0,2.8089,2.8067,2.8073,2.807,2.8055,2.804,2.8038,2.8044,2.8056,2.8045,2.8045,2.8055,2.8022,2.8034,2.8031,2.8015,2.7981,2.7978,2.7976,2.7955,2.795,2.7945,0,0,0,0,0,0,2.8066,2.8067,2.8074,2.805,2.8045,2.8044,2.803,2.8038,2.8029,2.8032,2.8039,2.8037,2.8015,2.8013,2.8027,2.7986,2.8003,2.8,2.7989,2.7983,2.7979,2.798,2.8045,0,0,0,0,0,2.8059,2.8047,2.8048,2.8027,2.8024,2.8028,2.8021,2.8026,2.8021,2.8019,2.8017,2.8011,2.7999,2.7991,2.798,2.7953,2.7952,2.794,2.7936,2.7933,2.793,2.7915,2.791,2.7967,2.7967,2.7967,0,0,2.8043,2.8041,2.8033,2.8022,2.8019,2.8006,2.8026,2.8011,2.8002,2.8016,2.7997,2.7995,2.7989,2.7965,2.7954,2.7962,2.7914,2.793,2.7927,2.7926,2.7912,2.7907,2.7902,2.7965,2.7965,2.7966,0,0,2.8007,2.8005,2.7987,2.7984,2.7979,2.7981,2.7977,2.7974,2.7974,2.7955,2.7966,2.7954,2.7933,2.7928,2.7923,2.7885,2.7894,2.7882,2.786,2.7846,2.7841,2.7837,2.7824,2.7819,2.7879,2.7879,2.7879,0,2.7987,2.7969,2.7977,2.7962,2.7956,2.797,2.7952,2.7948,2.7939,2.7935,2.7944,2.7919,2.7916,2.7891,2.7881,2.7877,2.7872,2.7882,2.7841,2.7837,2.7834,2.7821,2.7816,2.7877,2.7877,2.7877,2.7878,0,2.7944,2.7932,2.7918,2.791,2.7903,2.7887,2.7891,2.7883,2.7889,2.789,2.787,2.7866,2.7855,2.7849,2.7854,2.7825,2.783,2.784,2.7857,2.7827,2.7815,2.781,2.7875,2.7876,2.7876,2.7876,0,0,2.7893,2.7891,2.7885,2.7882,2.7878,2.7868,2.7852,2.7842,2.7834,2.7828,2.7814,2.7797,2.7806,2.78,2.7805,2.7792,2.7763,2.7804,2.7804,2.7796,2.7729,2.7721,2.7716,2.7768,2.7767,2.7767,2.773,0,2.7857,2.7831,2.7837,2.781,2.7798,2.7811,2.7797,2.7792,2.7793,2.7783,2.7783,2.7771,2.7784,2.7781,2.7769,2.7769,2.7749,2.7771,2.7755,2.7754,2.7756,2.7709,2.7701,2.7666,2.7725,2.7724,2.7724,0,2.7812,2.7805,2.7777,2.7775,2.777,2.7757,2.7748,2.7738,2.7733,2.7735,2.7728,2.7735,2.7719,2.7736,2.7713,2.7728,2.7722,2.772,2.7719,2.7718,2.7737,2.7706,2.7655,2.765,2.7716,2.7717,2.7718,0,2.7777,2.776,2.7742,2.7738,2.7736,2.7726,2.7725,2.7721,2.7714,2.7706,2.7702,2.7692,2.7686,2.7678,2.7682,2.7694,2.7657,2.7675,2.7658,2.7657,2.7649,2.765,2.7596,2.7645,2.7645,2.7645,2.7646,0,2.7736,2.7718,2.7726,2.7714,2.7695,2.7702,2.7682,2.7682,2.7678,2.7666,2.7677,2.7665,2.7671,2.766,2.7663,2.7643,2.764,2.764,2.7641,2.7639,2.7639,2.7635,2.7637,2.7644,2.7644,2.7645,2.7645,0,2.7694,2.7698,2.7679,2.7678,2.7677,2.7663,2.7662,2.7651,2.7652,2.7637,2.7634,2.7636,2.7623,2.7626,2.7612,2.7614,2.7589,2.7593,2.7591,2.7592,2.7574,2.7576,2.7516,2.7509,2.7562,2.7562,2.7562,0,2.7667,2.7654,2.7652,2.7646,2.7643,2.7632,2.7626,2.7632,2.7625,2.7619,2.7608,2.7596,2.7587,2.7566,2.7566,2.7555,2.7559,2.7538,2.7557,2.7555,2.7558,2.7559,2.7557,2.7535,2.7534,2.7534,2.7533,0,2.762,2.7623,2.7614,2.7605,2.7598,2.7591,2.7586,2.7579,2.7585,2.7577,2.7564,2.7557,2.7543,2.7531,2.7521,2.7518,2.7526,2.7527,2.7523,2.752,2.752,2.752,2.7581,2.7529,2.7529,2.7529,2.753,2.753,2.7585,2.7574,2.7571,2.756,2.7557,2.7551,2.7541,2.7542,2.7532,2.7521,2.7525,2.7511,2.7506,2.7494,2.749,2.7478,2.7486,2.7479,2.7477,2.7475,2.7473,2.7522,2.7476,2.7476,2.7477,2.7477,2.7477,0,2.7538,2.7536,2.7527,2.7519,2.7511,2.752,2.7514,2.7506,2.7494,2.7489,2.748,2.7465,2.7454,2.7453,2.7442,2.7433,2.7436,2.743,2.743,2.743,2.7467,2.7472,2.7427,2.7427,2.7427,2.7427,2.7427,2.7427,2.7512,2.7494,2.7496,2.7477,2.7475,2.7462,2.7458,2.7453,2.7449,2.7432,2.7423,2.7423,2.742,2.7409,2.7398,2.7398,2.7394,2.7386,2.7387,2.7422,2.7427,2.7432,2.7436,2.7385,2.7385,2.7351,2.735,2.735]}]]